WBANNO,USDM_WEEK,LONGITUDE,LATITUDE,SMVWC_5_CM_MEAN,SMANOM_5_CM_MEAN,SMPERC_5_CM_30COUNTS,SMPERC_5_CM_70COUNTS,SMVWC_10_CM_MEAN,SMANOM_10_CM_MEAN,SMPERC_10_CM_30COUNTS,SMPERC_10_CM_70COUNTS,SMVWC_20_CM_MEAN,SMANOM_20_CM_MEAN,SMPERC_20_CM_30COUNTS,SMPERC_20_CM_70COUNTS,SMVWC_50_CM_MEAN,SMANOM_50_CM_MEAN,SMPERC_50_CM_30COUNTS,SMPERC_50_CM_70COUNTS,SMVWC_100_CM_MEAN,SMANOM_100_CM_MEAN,SMPERC_100_CM_30COUNTS,SMPERC_100_CM_70COUNTS,SMVWC_TOP_CM_MEAN,SMANOM_TOP_CM_MEAN,SMPERC_TOP_CM_30COUNTS,SMPERC_TOP_CM_70COUNTS,SMVWC_COLUMN_CM_MEAN,SMANOM_COLUMN_CM_MEAN,SMPERC_COLUMN_CM_30COUNTS,SMPERC_COLUMN_CM_70COUNTS
54808,20090713,-88.37,40.05,,,,,,,,,,,,,,,,,,,,,,,,,,,,
54808,20090714,-88.37,40.05,,,,,,,,,,,,,,,,,,,,,,,,,,,,
54808,20090715,-88.37,40.05,,,,,,,,,,,,,,,,,,,,,,,,,,,,
54808,20090716,-88.37,40.05,,,,,,,,,,,,,,,,,,,,,,,,,,,,
54808,20090717,-88.37,40.05,,,,,,,,,,,,,,,,,,,,,,,,,,,,
54808,20090718,-88.37,40.05,,,,,,,,,,,,,,,,,,,,,,,,,,,,
54808,20090719,-88.37,40.05,0.438,1.06,0,1,0.439,1.05,0,1,0.407,0.68,0,1,,,,,,,,,0.438,1.08,0,1,,,,
54808,20090720,-88.37,40.05,0.437,1.07,0,1,0.44,1.06,0,1,0.406,0.68,0,1,,,,,,,,,0.438,1.09,0,1,,,,
54808,20090721,-88.37,40.05,0.434,1.08,0,1,0.44,1.07,0,1,0.407,0.69,0,1,,,,,,,,,0.437,1.1,0,1,,,,
54808,20090722,-88.37,40.05,0.43,1.08,0,1,0.44,1.09,0,1,0.408,0.71,0,1,,,,,,,,,0.435,1.11,0,1,,,,
54808,20090723,-88.37,40.05,0.42,1.04,0,1,0.437,1.09,0,1,0.407,0.71,0,1,,,,,,,,,0.429,1.09,0,1,,,,
54808,20090724,-88.37,40.05,0.411,1.01,0,1,0.435,1.09,0,1,0.405,0.71,0,1,,,,,,,,,0.423,1.07,0,1,,,,
54808,20090725,-88.37,40.05,0.404,1,0,1,0.432,1.1,0,1,0.405,0.71,0,1,,,,,,,,,0.418,1.07,0,1,,,,
54808,20090726,-88.37,40.05,0.405,1.04,0,1,0.431,1.12,0,1,0.406,0.74,0,1,,,,,,,,,0.418,1.1,0,1,,,,
54808,20090727,-88.37,40.05,0.403,1.07,0,1,0.43,1.14,0,1,0.407,0.76,0,1,,,,,,,,,0.417,1.12,0,1,,,,
54808,20090728,-88.37,40.05,0.402,1.1,0,1,0.429,1.16,0,1,0.408,0.79,0,1,,,,,,,,,0.415,1.13,0,1,,,,
54808,20090729,-88.37,40.05,0.403,1.14,0,1,0.429,1.18,0,1,0.409,0.81,0,1,,,,,,,,,0.416,1.16,0,1,,,,
54808,20090730,-88.37,40.05,0.409,1.22,0,1,0.43,1.2,0,1,0.411,0.85,0,1,,,,,,,,,0.42,1.2,0,1,,,,
54808,20090731,-88.37,40.05,0.414,1.28,0,1,0.431,1.24,0,1,0.413,0.88,0,1,,,,,,,,,0.423,1.25,0,1,,,,
54808,20090801,-88.37,40.05,0.417,1.34,0,1,0.432,1.26,0,1,0.414,0.91,0,1,,,,,,,,,0.424,1.28,0,1,,,,
54808,20090802,-88.37,40.05,0.412,1.34,0,1,0.431,1.28,0,1,0.413,0.92,0,1,,,,,,,,,0.422,1.28,0,1,,,,
54808,20090803,-88.37,40.05,0.41,1.36,0,1,0.43,1.29,0,1,0.413,0.93,0,1,,,,,,,,,0.42,1.29,0,1,,,,
54808,20090804,-88.37,40.05,0.407,1.37,0,1,0.43,1.31,0,1,0.412,0.95,0,1,,,,,,,,,0.418,1.31,0,1,,,,
54808,20090805,-88.37,40.05,0.41,1.43,0,1,0.43,1.35,0,1,0.413,0.97,0,1,,,,,,,,,0.42,1.35,0,1,,,,
54808,20090806,-88.37,40.05,0.41,1.46,0,1,0.431,1.37,0,1,0.413,0.99,0,1,,,,,,,,,0.42,1.38,0,1,,,,
54808,20090807,-88.37,40.05,0.41,1.48,0,1,0.43,1.39,0,1,0.413,1,0,1,,,,,,,,,0.42,1.4,0,1,,,,
54808,20090808,-88.37,40.05,0.41,1.5,0,1,0.431,1.4,0,1,0.413,1.01,0,1,,,,,,,,,0.42,1.42,0,1,,,,
54808,20090809,-88.37,40.05,0.411,1.52,0,1,0.431,1.42,0,1,0.413,1.02,0,1,,,,,,,,,0.421,1.45,0,1,,,,
54808,20090810,-88.37,40.05,0.413,1.54,0,1,0.432,1.43,0,1,0.414,1.02,0,1,,,,,,,,,0.422,1.47,0,1,,,,
54808,20090811,-88.37,40.05,0.414,1.55,0,1,0.433,1.43,0,1,0.415,1.03,0,1,,,,,,,,,0.423,1.48,0,1,,,,
54808,20090812,-88.37,40.05,0.405,1.48,0,1,0.431,1.41,0,1,0.414,1.02,0,1,,,,,,,,,0.418,1.44,0,1,,,,
54808,20090813,-88.37,40.05,0.394,1.38,0,1,0.428,1.38,0,1,0.412,1,0,1,,,,,,,,,0.411,1.37,0,1,,,,
54808,20090814,-88.37,40.05,0.38,1.28,0,1,0.424,1.35,0,1,0.41,0.99,0,1,,,,,,,,,0.402,1.3,0,1,,,,
54808,20090815,-88.37,40.05,0.366,1.17,0,1,0.419,1.31,0,1,0.408,0.98,0,1,,,,,,,,,0.393,1.22,0,1,,,,
54808,20090816,-88.37,40.05,0.349,1.05,0,1,0.414,1.27,0,1,0.405,0.96,0,1,,,,,,,,,0.381,1.14,0,1,,,,
54808,20090817,-88.37,40.05,0.339,0.98,0,1,0.409,1.24,0,1,0.403,0.96,0,1,,,,,,,,,0.374,1.09,0,1,,,,
54808,20090818,-88.37,40.05,0.336,0.97,0,1,0.405,1.21,0,1,0.402,0.95,0,1,,,,,,,,,0.37,1.08,0,1,,,,
54808,20090819,-88.37,40.05,0.337,0.99,0,1,0.402,1.19,0,1,0.401,0.95,0,1,,,,,,,,,0.369,1.09,0,1,,,,
54808,20090820,-88.37,40.05,0.349,1.09,0,1,0.402,1.2,0,1,0.401,0.95,0,1,,,,,,,,,0.376,1.15,0,1,,,,
54808,20090821,-88.37,40.05,0.366,1.22,0,1,0.404,1.22,0,1,0.404,0.96,0,1,,,,,,,,,0.385,1.24,0,1,,,,
54808,20090822,-88.37,40.05,0.383,1.34,0,1,0.407,1.25,0,1,0.406,0.97,0,1,,,,,,,,,0.395,1.32,0,1,,,,
54808,20090823,-88.37,40.05,0.401,1.47,0,1,0.411,1.28,0,1,0.408,0.98,0,1,,,,,,,,,0.406,1.41,0,1,,,,
54808,20090824,-88.37,40.05,0.413,1.54,0,1,0.414,1.3,0,1,0.41,0.97,0,1,,,,,,,,,0.414,1.45,0,1,,,,
54808,20090825,-88.37,40.05,0.418,1.54,0,1,0.416,1.3,0,1,0.41,0.96,0,1,,,,,,,,,0.417,1.44,0,1,,,,
54808,20090826,-88.37,40.05,0.42,1.53,0,1,0.417,1.28,0,1,0.411,0.94,0,1,,,,,,,,,0.418,1.42,0,1,,,,
54808,20090827,-88.37,40.05,0.411,1.43,0,1,0.416,1.24,0,1,0.41,0.91,0,1,,,,,,,,,0.414,1.35,0,1,,,,
54808,20090828,-88.37,40.05,0.405,1.35,0,1,0.415,1.19,0,1,0.409,0.88,0,1,,,,,,,,,0.41,1.27,0,1,,,,
54808,20090829,-88.37,40.05,0.409,1.33,0,1,0.418,1.16,0,1,0.411,0.88,0,1,,,,,,,,,0.413,1.24,0,1,,,,
54808,20090830,-88.37,40.05,0.41,1.29,0,1,0.419,1.12,0,1,0.413,0.87,0,1,,,,,,,,,0.414,1.2,0,1,,,,
54808,20090831,-88.37,40.05,0.41,1.26,0,1,0.42,1.07,0,1,0.414,0.85,0,1,,,,,,,,,0.415,1.16,0,1,,,,
54808,20090901,-88.37,40.05,0.411,1.23,0,1,0.421,1.03,0,1,0.415,0.83,0,1,,,,,,,,,0.416,1.13,0,1,,,,
54808,20090902,-88.37,40.05,0.411,1.2,0,1,0.422,1,0,1,0.416,0.82,0,1,,,,,,,,,0.417,1.1,0,1,,,,
54808,20090903,-88.37,40.05,0.412,1.18,0,1,0.422,0.97,0,1,0.417,0.8,0,1,,,,,,,,,0.417,1.08,0,1,,,,
54808,20090904,-88.37,40.05,0.406,1.13,0,1,0.422,0.95,0,1,0.416,0.78,0,1,,,,,,,,,0.414,1.04,0,1,,,,
54808,20090905,-88.37,40.05,0.39,1.02,0,1,0.418,0.9,0,1,0.414,0.75,0,1,,,,,,,,,0.404,0.96,0,1,,,,
54808,20090906,-88.37,40.05,0.376,0.94,0,1,0.414,0.87,0,1,0.411,0.72,0,1,,,,,,,,,0.395,0.9,0,1,,,,
54808,20090907,-88.37,40.05,0.363,0.86,0,1,0.411,0.84,0,1,0.41,0.7,0,1,,,,,,,,,0.387,0.85,0,1,,,,
54808,20090908,-88.37,40.05,0.35,0.78,0,1,0.408,0.81,0,1,0.409,0.69,0,1,,,,,,,,,0.379,0.8,0,1,,,,
54808,20090909,-88.37,40.05,0.338,0.71,0,0.994,0.404,0.78,0,1,0.407,0.68,0,1,,,,,,,,,0.371,0.76,0,1,,,,
54808,20090910,-88.37,40.05,0.327,0.65,0,0.887,0.401,0.76,0,1,0.406,0.66,0,1,,,,,,,,,0.364,0.72,0,1,,,,
54808,20090911,-88.37,40.05,0.317,0.59,0,0.744,0.397,0.73,0,1,0.404,0.65,0,1,,,,,,,,,0.357,0.68,0,1,,,,
54808,20090912,-88.37,40.05,0.308,0.54,0,0.601,0.393,0.71,0,1,0.401,0.63,0,1,,,,,,,,,0.351,0.65,0,1,,,,
54808,20090913,-88.37,40.05,0.299,0.48,0,0.458,0.389,0.68,0,1,0.398,0.6,0,1,,,,,,,,,0.344,0.61,0,0.994,,,,
54808,20090914,-88.37,40.05,0.288,0.41,0,0.315,0.383,0.65,0,1,0.394,0.58,0,1,,,,,,,,,0.336,0.56,0,0.881,,,,
54808,20090915,-88.37,40.05,0.278,0.35,0,0.173,0.377,0.62,0,1,0.39,0.54,0,1,,,,,,,,,0.328,0.51,0,0.738,,,,
54808,20090916,-88.37,40.05,0.269,0.28,0,0.036,0.372,0.59,0,1,0.385,0.5,0,1,,,,,,,,,0.32,0.46,0,0.595,,,,
54808,20090917,-88.37,40.05,0.26,0.22,0,0,0.365,0.55,0,0.946,0.38,0.46,0,0.988,,,,,,,,,0.313,0.41,0,0.452,,,,
54808,20090918,-88.37,40.05,0.251,0.17,0,0,0.359,0.51,0,0.804,0.375,0.42,0,0.881,,,,,,,,,0.305,0.36,0,0.31,,,,
54808,20090919,-88.37,40.05,0.243,0.12,0,0,0.352,0.47,0,0.661,0.369,0.38,0,0.738,,,,,,,,,0.298,0.31,0,0.167,,,,
54808,20090920,-88.37,40.05,0.236,0.07,0,0,0.347,0.44,0,0.518,0.364,0.34,0,0.595,,,,,,,,,0.291,0.27,0,0.03,,,,
54808,20090921,-88.37,40.05,0.23,0.04,0,0,0.341,0.41,0,0.375,0.359,0.3,0,0.452,,,,,,,,,0.286,0.24,0,0,,,,
54808,20090922,-88.37,40.05,0.226,0.02,0,0,0.337,0.38,0,0.232,0.354,0.28,0,0.31,,,,,,,,,0.282,0.21,0,0,,,,
54808,20090923,-88.37,40.05,0.23,0.05,0,0.089,0.336,0.38,0,0.196,0.351,0.25,0,0.167,,,,,,,,,0.283,0.23,0,0.113,,,,
54808,20090924,-88.37,40.05,0.234,0.08,0,0.089,0.335,0.38,0,0.22,0.348,0.24,0,0.036,,,,,,,,,0.285,0.25,0,0.155,,,,
54808,20090925,-88.37,40.05,0.238,0.12,0,0.089,0.335,0.39,0,0.351,0.346,0.23,0,0,,,,,,,,,0.287,0.27,0,0.19,,,,
54808,20090926,-88.37,40.05,0.243,0.17,0,0.131,0.336,0.41,0,0.494,0.345,0.23,0,0.006,,,,,,,,,0.29,0.31,0,0.292,,,,
54808,20090927,-88.37,40.05,0.249,0.22,0,0.232,0.337,0.43,0,0.637,0.344,0.24,0,0.042,,,,,,,,,0.293,0.34,0,0.435,,,,
54808,20090928,-88.37,40.05,0.255,0.27,0,0.256,0.337,0.46,0,0.78,0.344,0.25,0,0.083,,,,,,,,,0.296,0.38,0,0.571,,,,
54808,20090929,-88.37,40.05,0.258,0.3,0,0.256,0.337,0.47,0,0.923,0.343,0.25,0,0.095,,,,,,,,,0.298,0.4,0,0.577,,,,
54808,20090930,-88.37,40.05,0.253,0.27,0,0.167,0.335,0.47,0,0.958,0.341,0.25,0,0.095,,,,,,,,,0.294,0.38,0,0.464,,,,
54808,20091001,-88.37,40.05,0.248,0.23,0,0.167,0.332,0.47,0,0.988,0.339,0.25,0,0.101,,,,,,,,,0.29,0.36,0,0.423,,,,
54808,20091002,-88.37,40.05,0.255,0.29,0,0.25,0.331,0.49,0,1,0.339,0.26,0,0.19,,,,,,,,,0.293,0.4,0,0.476,,,,
54808,20091003,-88.37,40.05,0.266,0.39,0,0.351,0.331,0.5,0,1,0.338,0.27,0,0.327,,,,,,,,,0.299,0.47,0,0.518,,,,
54808,20091004,-88.37,40.05,0.275,0.46,0,0.393,0.331,0.52,0,1,0.338,0.28,0,0.429,,,,,,,,,0.303,0.52,0,0.518,,,,
54808,20091005,-88.37,40.05,0.282,0.52,0,0.512,0.331,0.53,0,1,0.337,0.28,0,0.524,,,,,,,,,0.306,0.56,0,0.524,,,,
54808,20091006,-88.37,40.05,0.289,0.58,0,0.655,0.331,0.55,0,1,0.336,0.28,0,0.613,,,,,,,,,0.31,0.6,0,0.661,,,,
54808,20091007,-88.37,40.05,0.302,0.68,0,0.798,0.333,0.57,0,1,0.337,0.3,0,0.744,,,,,,,,,0.317,0.67,0,0.804,,,,
54808,20091008,-88.37,40.05,0.314,0.77,0,0.94,0.334,0.58,0,1,0.337,0.3,0,0.845,,,,,,,,,0.324,0.73,0,0.946,,,,
54808,20091009,-88.37,40.05,0.331,0.91,0,1,0.347,0.7,0,1,0.343,0.37,0,0.899,,,,,,,,,0.339,0.88,0,1,,,,
54808,20091010,-88.37,40.05,0.345,1.02,0,1,0.361,0.82,0,1,0.353,0.48,0,0.899,,,,,,,,,0.353,1.01,0,1,,,,
54808,20091011,-88.37,40.05,0.357,1.12,0,1,0.374,0.93,0,1,0.361,0.57,0,0.905,,,,,,,,,0.365,1.14,0,1,,,,
54808,20091012,-88.37,40.05,0.37,1.21,0,1,0.386,1.03,0,1,0.37,0.67,0,0.911,,,,,,,,,0.378,1.25,0,1,,,,
54808,20091013,-88.37,40.05,0.385,1.33,0,1,0.398,1.13,0,1,0.379,0.77,0,0.952,,,,,,,,,0.391,1.37,0,1,,,,
54808,20091014,-88.37,40.05,0.397,1.41,0,1,0.41,1.23,0,1,0.387,0.86,0,0.964,,,,,,,,,0.403,1.47,0,1,,,,
54808,20091015,-88.37,40.05,0.415,1.54,0,1,0.424,1.35,0,1,0.398,0.98,0,1,,,,,,,,,0.42,1.6,0,1,,,,
54808,20091016,-88.37,40.05,0.414,1.5,0,1,0.426,1.35,0,1,0.402,1.03,0,1,,,,,,,,,0.42,1.57,0,1,,,,
54808,20091017,-88.37,40.05,0.412,1.45,0,1,0.426,1.32,0,1,0.401,1.04,0,1,,,,,,,,,0.419,1.5,0,1,,,,
54808,20091018,-88.37,40.05,0.413,1.41,0,1,0.426,1.3,0,1,0.402,1.05,0,1,,,,,,,,,0.419,1.45,0,1,,,,
54808,20091019,-88.37,40.05,0.414,1.37,0,1,0.427,1.27,0,1,0.403,1.06,0,1,,,,,,,,,0.42,1.4,0,1,,,,
54808,20091020,-88.37,40.05,0.413,1.32,0,1,0.427,1.25,0,1,0.403,1.06,0,1,,,,,,,,,0.42,1.35,0,1,,,,
54808,20091021,-88.37,40.05,0.411,1.24,0,1,0.427,1.21,0,1,0.404,1.07,0,1,,,,,,,,,0.419,1.27,0,1,,,,
54808,20091022,-88.37,40.05,0.404,1.13,0,1,0.424,1.15,0,1,0.402,1.04,0,1,,,,,,,,,0.414,1.17,0,1,,,,
54808,20091023,-88.37,40.05,0.404,1.06,0,1,0.424,1.11,0,1,0.403,1.04,0,1,,,,,,,,,0.414,1.11,0,1,,,,
54808,20091024,-88.37,40.05,0.41,1.04,0,1,0.426,1.1,0,1,0.412,1.13,0,1,,,,,,,,,0.418,1.08,0,1,,,,
54808,20091025,-88.37,40.05,0.413,1,0,1,0.427,1.08,0,1,0.413,1.14,0,1,,,,,,,,,0.42,1.05,0,1,,,,
54808,20091026,-88.37,40.05,0.416,0.96,0,1,0.428,1.07,0,1,0.414,1.14,0,1,,,,,,,,,0.422,1.01,0,1,,,,
54808,20091027,-88.37,40.05,0.421,0.93,0,1,0.43,1.06,0,1,0.415,1.14,0,1,,,,,,,,,0.425,0.99,0,1,,,,
54808,20091028,-88.37,40.05,0.43,0.95,0,1,0.434,1.06,0,1,0.418,1.16,0,1,,,,,,,,,0.432,0.99,0,1,,,,
54808,20091029,-88.37,40.05,0.439,0.97,0,1,0.438,1.06,0,1,0.421,1.19,0,1,,,,,,,,,0.438,1,0,1,,,,
54808,20091030,-88.37,40.05,0.443,0.96,0,1,0.441,1.06,0,1,0.423,1.19,0,1,,,,,,,,,0.442,0.99,0,1,,,,
54808,20091031,-88.37,40.05,0.447,0.95,0,1,0.444,1.05,0,1,0.423,1.19,0,1,,,,,,,,,0.445,0.98,0,1,,,,
54808,20091101,-88.37,40.05,0.451,0.95,0,1,0.448,1.05,0,1,0.429,1.23,0,1,,,,,,,,,0.449,0.98,0,1,,,,
54808,20091102,-88.37,40.05,0.453,0.94,0,1,0.449,1.03,0,1,0.43,1.24,0,1,,,,,,,,,0.451,0.97,0,1,,,,
54808,20091103,-88.37,40.05,0.453,0.93,0,1,0.45,1,0,1,0.43,1.22,0,1,,,,,,,,,0.452,0.95,0,1,,,,
54808,20091104,-88.37,40.05,0.449,0.89,0,1,0.449,0.96,0,1,0.429,1.18,0,1,,,,,,,,,0.449,0.92,0,1,,,,
54808,20091105,-88.37,40.05,0.446,0.86,0,1,0.447,0.92,0,1,0.427,1.13,0,1,,,,,,,,,0.446,0.89,0,1,,,,
54808,20091106,-88.37,40.05,0.44,0.81,0,1,0.444,0.87,0,1,0.424,1.06,0,1,,,,,,,,,0.442,0.86,0,1,,,,
54808,20091107,-88.37,40.05,0.427,0.74,0,1,0.436,0.79,0,1,0.414,0.92,0,1,,,,,,,,,0.432,0.8,0,1,,,,
54808,20091108,-88.37,40.05,0.419,0.69,0,1,0.431,0.74,0,1,0.407,0.8,0,1,,,,,,,,,0.425,0.77,0,1,,,,
54808,20091109,-88.37,40.05,0.413,0.66,0,1,0.428,0.71,0,1,0.405,0.74,0,1,,,,,,,,,0.421,0.74,0,1,,,,
54808,20091110,-88.37,40.05,0.407,0.62,0,1,0.426,0.69,0,1,0.405,0.7,0,1,,,,,,,,,0.416,0.72,0,1,,,,
54808,20091111,-88.37,40.05,0.401,0.58,0,1,0.423,0.67,0,1,0.404,0.67,0,1,,,,,,,,,0.412,0.69,0,1,,,,
54808,20091112,-88.37,40.05,0.393,0.53,0,0.929,0.42,0.65,0,1,0.403,0.65,0,1,,,,,,,,,0.407,0.65,0,1,,,,
54808,20091113,-88.37,40.05,0.385,0.46,0,0.786,0.418,0.63,0,1,0.402,0.63,0,1,,,,,,,,,0.401,0.59,0,1,,,,
54808,20091114,-88.37,40.05,0.377,0.39,0,0.643,0.414,0.6,0,1,0.401,0.62,0,1,,,,,,,,,0.396,0.52,0,0.982,,,,
54808,20091115,-88.37,40.05,0.369,0.31,0,0.5,0.411,0.58,0,1,0.4,0.61,0,1,,,,,,,,,0.39,0.46,0,0.887,,,,
54808,20091116,-88.37,40.05,0.371,0.33,0,0.435,0.411,0.58,0,1,0.401,0.62,0,1,,,,,,,,,0.391,0.46,0,0.833,,,,
54808,20091117,-88.37,40.05,0.384,0.47,0,0.435,0.416,0.62,0,1,0.408,0.71,0,1,,,,,,,,,0.4,0.55,0,0.833,,,,
54808,20091118,-88.37,40.05,0.4,0.63,0,0.435,0.423,0.68,0,1,0.416,0.81,0,1,,,,,,,,,0.412,0.67,0,0.833,,,,
54808,20091119,-88.37,40.05,0.415,0.77,0,0.506,0.43,0.74,0,1,0.425,0.91,0,1,,,,,,,,,0.422,0.78,0,0.833,,,,
54808,20091120,-88.37,40.05,0.429,0.91,0,0.649,0.436,0.79,0,1,0.432,0.99,0,1,,,,,,,,,0.433,0.89,0,0.833,,,,
54808,20091121,-88.37,40.05,0.442,1.04,0,0.792,0.441,0.83,0,1,0.436,1.02,0,1,,,,,,,,,0.442,0.98,0,0.851,,,,
54808,20091122,-88.37,40.05,0.455,1.16,0,0.935,0.446,0.86,0,1,0.438,1.03,0,1,,,,,,,,,0.451,1.07,0,0.946,,,,
54808,20091123,-88.37,40.05,0.459,1.19,0,1,0.448,0.88,0,1,0.439,1.03,0,1,,,,,,,,,0.453,1.09,0,1,,,,
54808,20091124,-88.37,40.05,0.452,1.1,0,1,0.444,0.84,0,1,0.432,0.93,0,1,,,,,,,,,0.448,1.02,0,1,,,,
54808,20091125,-88.37,40.05,0.446,1.03,0,1,0.441,0.82,0,1,0.427,0.85,0,1,,,,,,,,,0.444,0.98,0,1,,,,
54808,20091126,-88.37,40.05,0.444,1,0,1,0.439,0.81,0,1,0.422,0.78,0,1,,,,,,,,,0.441,0.95,0,1,,,,
54808,20091127,-88.37,40.05,0.441,0.98,0,1,0.438,0.83,0,1,0.418,0.73,0,1,,,,,,,,,0.44,0.93,0,1,,,,
54808,20091128,-88.37,40.05,0.441,0.96,0,1,0.438,0.85,0,1,0.417,0.72,0,1,,,,,,,,,0.44,0.94,0,1,,,,
54808,20091129,-88.37,40.05,0.441,0.94,0,1,0.439,0.87,0,1,0.417,0.72,0,1,,,,,,,,,0.44,0.94,0,1,,,,
54808,20091130,-88.37,40.05,0.44,0.91,0,1,0.439,0.89,0,1,0.417,0.72,0,1,,,,,,,,,0.44,0.95,0,1,,,,
54808,20091201,-88.37,40.05,0.44,0.88,0,1,0.439,0.91,0,1,0.417,0.71,0,1,,,,,,,,,0.44,0.95,0,1,,,,
54808,20091202,-88.37,40.05,0.436,0.8,0,1,0.437,0.89,0,1,0.415,0.68,0,1,,,,,,,,,0.436,0.91,0,1,,,,
54808,20091203,-88.37,40.05,0.434,0.73,0,1,0.435,0.87,0,1,0.412,0.64,0,1,,,,,,,,,0.434,0.88,0,1,,,,
54808,20091204,-88.37,40.05,0.432,0.68,0,1,0.434,0.85,0,1,0.41,0.61,0,1,,,,,,,,,0.433,0.85,0,1,,,,
54808,20091205,-88.37,40.05,0.431,0.63,0,1,0.432,0.82,0,1,0.408,0.59,0,1,,,,,,,,,0.431,0.81,0,1,,,,
54808,20091206,-88.37,40.05,0.43,0.59,0,1,0.431,0.78,0,1,0.407,0.56,0,1,,,,,,,,,0.43,0.76,0,1,,,,
54808,20091207,-88.37,40.05,0.429,0.55,0,0.994,0.429,0.74,0,1,0.405,0.53,0,0.994,,,,,,,,,0.429,0.7,0,1,,,,
54808,20091208,-88.37,40.05,0.428,0.52,0,0.988,0.428,0.7,0,1,0.404,0.51,0,0.994,,,,,,,,,0.428,0.66,0,1,,,,
54808,20091209,-88.37,40.05,0.432,0.53,0,0.988,0.429,0.69,0,1,0.405,0.52,0,0.994,,,,,,,,,0.43,0.65,0,1,,,,
54808,20091210,-88.37,40.05,0.433,0.52,0,0.988,0.429,0.67,0,1,0.405,0.53,0,0.994,,,,,,,,,0.431,0.63,0,1,,,,
54808,20091211,-88.37,40.05,0.433,0.5,0,0.986,0.428,0.64,0,1,0.406,0.54,0,0.994,,,,,,,,,0.431,0.61,0,1,,,,
54808,20091212,-88.37,40.05,,,,,0.427,0.63,0,1,0.406,0.54,0,0.994,,,,,,,,,,,,,,,,
54808,20091213,-88.37,40.05,,,,,,,,,0.406,0.55,0,0.994,,,,,,,,,,,,,,,,
54808,20091214,-88.37,40.05,,,,,,,,,0.408,0.58,0,1,,,,,,,,,,,,,,,,
54808,20091215,-88.37,40.05,,,,,,,,,0.41,0.63,0,1,,,,,,,,,,,,,,,,
54808,20091216,-88.37,40.05,,,,,,,,,0.41,0.63,0,1,,,,,,,,,,,,,,,,
54808,20091217,-88.37,40.05,,,,,,,,,0.409,0.62,0,1,,,,,,,,,,,,,,,,
54808,20091218,-88.37,40.05,,,,,,,,,0.408,0.6,0,0.994,,,,,,,,,,,,,,,,
54808,20091219,-88.37,40.05,,,,,,,,,0.408,0.61,0,0.994,,,,,,,,,,,,,,,,
54808,20091220,-88.37,40.05,,,,,0.427,0.57,0,1,0.408,0.6,0,0.994,,,,,,,,,,,,,,,,
54808,20091221,-88.37,40.05,,,,,0.425,0.56,0,1,0.407,0.57,0,0.994,,,,,,,,,,,,,,,,
54808,20091222,-88.37,40.05,,,,,0.424,0.55,0,1,0.405,0.54,0,0.994,,,,,,,,,,,,,,,,
54808,20091223,-88.37,40.05,,,,,0.425,0.57,0,1,0.404,0.53,0,0.994,,,,,,,,,,,,,,,,
54808,20091224,-88.37,40.05,,,,,0.428,0.64,0,1,0.406,0.58,0,0.994,,,,,,,,,,,,,,,,
54808,20091225,-88.37,40.05,0.434,0.4,0,0.47,0.431,0.74,0,1,0.412,0.71,0,1,,,,,,,,,0.433,0.55,0,0.946,,,,
54808,20091226,-88.37,40.05,0.442,0.5,0,0.56,0.435,0.84,0,1,0.419,0.84,0,1,,,,,,,,,0.438,0.63,0,0.964,,,,
54808,20091227,-88.37,40.05,0.446,0.57,0,0.702,0.437,0.91,0,1,0.422,0.91,0,1,,,,,,,,,0.442,0.69,0,0.97,,,,
54808,20091228,-88.37,40.05,0.449,0.61,0,0.833,0.438,0.96,0,1,0.424,0.96,0,1,,,,,,,,,0.444,0.72,0,0.994,,,,
54808,20091229,-88.37,40.05,0.45,0.63,0,0.911,0.438,1,0,1,0.425,0.99,0,1,,,,,,,,,0.444,0.73,0,1,,,,
54808,20091230,-88.37,40.05,0.451,0.64,0,0.94,0.438,1.01,0,1,0.425,1.01,0,1,,,,,,,,,0.444,0.73,0,1,,,,
54808,20091231,-88.37,40.05,0.448,0.61,0,0.939,0.436,1,0,1,0.423,0.96,0,1,,,,,,,,,0.442,0.69,0,1,,,,
54808,20100101,-88.37,40.05,0.441,0.51,0,0.913,0.433,0.95,0,1,0.417,0.87,0,1,,,,,,,,,0.437,0.6,0,1,,,,
54808,20100102,-88.37,40.05,,,,,0.429,0.89,0,1,0.411,0.75,0,1,,,,,,,,,,,,,,,,
54808,20100103,-88.37,40.05,,,,,,,,,0.407,0.7,0,0.988,,,,,,,,,,,,,,,,
54808,20100104,-88.37,40.05,,,,,,,,,0.404,0.65,0,0.952,,,,,,,,,,,,,,,,
54808,20100105,-88.37,40.05,,,,,,,,,0.403,0.64,0,0.943,,,,,,,,,,,,,,,,
54808,20100106,-88.37,40.05,,,,,,,,,,,,,,,,,,,,,,,,,,,,
54808,20100107,-88.37,40.05,,,,,,,,,,,,,,,,,,,,,,,,,,,,
54808,20100108,-88.37,40.05,,,,,,,,,,,,,,,,,,,,,,,,,,,,
54808,20100109,-88.37,40.05,,,,,,,,,,,,,,,,,,,,,,,,,,,,
54808,20100110,-88.37,40.05,,,,,,,,,,,,,,,,,,,,,,,,,,,,
54808,20100111,-88.37,40.05,,,,,,,,,,,,,,,,,,,,,,,,,,,,
54808,20100112,-88.37,40.05,,,,,,,,,,,,,,,,,,,,,,,,,,,,
54808,20100113,-88.37,40.05,,,,,,,,,,,,,,,,,,,,,,,,,,,,
54808,20100114,-88.37,40.05,,,,,,,,,,,,,,,,,,,,,,,,,,,,
54808,20100115,-88.37,40.05,,,,,,,,,,,,,,,,,,,,,,,,,,,,
54808,20100116,-88.37,40.05,,,,,,,,,,,,,,,,,,,,,,,,,,,,
54808,20100117,-88.37,40.05,,,,,,,,,,,,,,,,,,,,,,,,,,,,
54808,20100118,-88.37,40.05,,,,,,,,,,,,,,,,,,,,,,,,,,,,
54808,20100119,-88.37,40.05,,,,,,,,,,,,,,,,,,,,,,,,,,,,
54808,20100120,-88.37,40.05,,,,,,,,,,,,,,,,,,,,,,,,,,,,
54808,20100121,-88.37,40.05,,,,,,,,,,,,,,,,,,,,,,,,,,,,
54808,20100122,-88.37,40.05,,,,,,,,,,,,,,,,,,,,,,,,,,,,
54808,20100123,-88.37,40.05,,,,,,,,,,,,,,,,,,,,,,,,,,,,
54808,20100124,-88.37,40.05,,,,,,,,,,,,,,,,,,,,,,,,,,,,
54808,20100125,-88.37,40.05,,,,,,,,,,,,,,,,,,,,,,,,,,,,
54808,20100126,-88.37,40.05,,,,,,,,,,,,,,,,,,,,,,,,,,,,
54808,20100127,-88.37,40.05,,,,,,,,,,,,,,,,,,,,,,,,,,,,
54808,20100128,-88.37,40.05,,,,,,,,,,,,,,,,,,,,,,,,,,,,
54808,20100129,-88.37,40.05,,,,,,,,,,,,,,,,,,,,,,,,,,,,
54808,20100130,-88.37,40.05,,,,,,,,,,,,,,,,,,,,,,,,,,,,
54808,20100131,-88.37,40.05,,,,,,,,,,,,,,,,,,,,,,,,,,,,
54808,20100201,-88.37,40.05,,,,,,,,,,,,,,,,,,,,,,,,,,,,
54808,20100202,-88.37,40.05,,,,,,,,,,,,,,,,,,,,,,,,,,,,
54808,20100203,-88.37,40.05,,,,,,,,,,,,,,,,,,,,,,,,,,,,
54808,20100204,-88.37,40.05,,,,,,,,,,,,,,,,,,,,,,,,,,,,
54808,20100205,-88.37,40.05,,,,,,,,,,,,,,,,,,,,,,,,,,,,
54808,20100206,-88.37,40.05,,,,,,,,,,,,,,,,,,,,,,,,,,,,
54808,20100207,-88.37,40.05,,,,,,,,,,,,,,,,,,,,,,,,,,,,
54808,20100208,-88.37,40.05,,,,,,,,,,,,,,,,,,,,,,,,,,,,
54808,20100209,-88.37,40.05,,,,,,,,,,,,,,,,,,,,,,,,,,,,
54808,20100210,-88.37,40.05,,,,,,,,,,,,,,,,,,,,,,,,,,,,
54808,20100211,-88.37,40.05,,,,,,,,,,,,,,,,,,,,,,,,,,,,
54808,20100212,-88.37,40.05,,,,,,,,,,,,,,,,,,,,,,,,,,,,
54808,20100213,-88.37,40.05,,,,,,,,,,,,,,,,,,,,,,,,,,,,
54808,20100214,-88.37,40.05,,,,,,,,,,,,,,,,,,,,,,,,,,,,
54808,20100215,-88.37,40.05,,,,,,,,,,,,,,,,,,,,,,,,,,,,
54808,20100216,-88.37,40.05,,,,,,,,,,,,,,,,,,,,,,,,,,,,
54808,20100217,-88.37,40.05,,,,,,,,,,,,,,,,,,,,,,,,,,,,
54808,20100218,-88.37,40.05,,,,,,,,,,,,,,,,,,,,,,,,,,,,
54808,20100219,-88.37,40.05,,,,,,,,,,,,,,,,,,,,,,,,,,,,
54808,20100220,-88.37,40.05,,,,,,,,,,,,,,,,,,,,,,,,,,,,
54808,20100221,-88.37,40.05,,,,,,,,,,,,,,,,,,,,,,,,,,,,
54808,20100222,-88.37,40.05,,,,,,,,,,,,,,,,,,,,,,,,,,,,
54808,20100223,-88.37,40.05,,,,,,,,,,,,,,,,,,,,,,,,,,,,
54808,20100224,-88.37,40.05,,,,,,,,,,,,,,,,,,,,,,,,,,,,
54808,20100225,-88.37,40.05,,,,,,,,,,,,,,,,,,,,,,,,,,,,
54808,20100226,-88.37,40.05,,,,,,,,,,,,,,,,,,,,,,,,,,,,
54808,20100227,-88.37,40.05,,,,,,,,,,,,,,,,,,,,,,,,,,,,
54808,20100228,-88.37,40.05,,,,,,,,,,,,,,,,,,,,,,,,,,,,
54808,20100301,-88.37,40.05,,,,,,,,,,,,,,,,,,,,,,,,,,,,
54808,20100302,-88.37,40.05,,,,,,,,,,,,,,,,,,,,,,,,,,,,
54808,20100303,-88.37,40.05,,,,,,,,,,,,,,,,,,,,,,,,,,,,
54808,20100304,-88.37,40.05,,,,,,,,,,,,,,,,,,,,,,,,,,,,
54808,20100305,-88.37,40.05,,,,,,,,,,,,,,,,,,,,,,,,,,,,
54808,20100306,-88.37,40.05,,,,,,,,,,,,,,,,,,,,,,,,,,,,
54808,20100307,-88.37,40.05,,,,,,,,,,,,,,,,,,,,,,,,,,,,
54808,20100308,-88.37,40.05,,,,,,,,,,,,,,,,,,,,,,,,,,,,
54808,20100309,-88.37,40.05,,,,,,,,,,,,,,,,,,,,,,,,,,,,
54808,20100310,-88.37,40.05,,,,,,,,,,,,,,,,,,,,,,,,,,,,
54808,20100311,-88.37,40.05,,,,,,,,,,,,,,,,,,,,,,,,,,,,
54808,20100312,-88.37,40.05,,,,,,,,,,,,,,,,,,,,,,,,,,,,
54808,20100313,-88.37,40.05,,,,,,,,,,,,,,,,,,,,,,,,,,,,
54808,20100314,-88.37,40.05,0.426,0.8,0,1,,,,,,,,,,,,,,,,,,,,,,,,
54808,20100315,-88.37,40.05,0.425,0.77,0,1,0.436,1.11,0,1,0.4,0.66,0,0.844,,,,,,,,,0.431,0.96,0,1,,,,
54808,20100316,-88.37,40.05,0.423,0.71,0,0.988,0.435,1.07,0,1,0.399,0.6,0,0.755,,,,,,,,,0.429,0.92,0,1,,,,
54808,20100317,-88.37,40.05,0.421,0.66,0,0.893,0.434,1.02,0,1,0.398,0.55,0,0.667,,,,,,,,,0.427,0.87,0,1,,,,
54808,20100318,-88.37,40.05,0.416,0.54,0,0.756,0.431,0.92,0,1,0.395,0.44,0,0.536,,,,,,,,,0.424,0.76,0,0.994,,,,
54808,20100319,-88.37,40.05,0.413,0.46,0,0.613,0.428,0.83,0,0.994,0.393,0.33,0.006,0.417,,,,,,,,,0.42,0.67,0,0.952,,,,
54808,20100320,-88.37,40.05,0.41,0.39,0,0.47,0.425,0.76,0,0.994,0.391,0.24,0.006,0.298,,,,,,,,,0.418,0.59,0,0.821,,,,
54808,20100321,-88.37,40.05,0.406,0.28,0,0.327,0.422,0.68,0,0.97,0.389,0.13,0.036,0.173,,,,,,,,,0.414,0.49,0,0.679,,,,
54808,20100322,-88.37,40.05,0.402,0.2,0,0.185,0.419,0.6,0,0.929,0.386,0.03,0.089,0.071,,,,,,,,,0.411,0.41,0,0.536,,,,
54808,20100323,-88.37,40.05,0.4,0.15,0,0.054,0.416,0.54,0,0.911,0.385,-0.03,0.107,0.036,,,,,,,,,0.408,0.35,0,0.393,,,,
54808,20100324,-88.37,40.05,0.397,0.11,0,0.006,0.414,0.48,0,0.869,0.383,-0.09,0.131,0.006,,,,,,,,,0.405,0.3,0,0.25,,,,
54808,20100325,-88.37,40.05,0.396,0.08,0,0,0.411,0.44,0,0.851,0.382,-0.14,0.161,0,,,,,,,,,0.404,0.26,0,0.113,,,,
54808,20100326,-88.37,40.05,0.399,0.16,0,0.125,0.413,0.48,0,0.857,0.384,-0.05,0.155,0.101,,,,,,,,,0.406,0.32,0,0.143,,,,
54808,20100327,-88.37,40.05,0.401,0.21,0,0.256,0.414,0.51,0,0.857,0.385,0.02,0.155,0.22,,,,,,,,,0.407,0.37,0,0.274,,,,
54808,20100328,-88.37,40.05,0.403,0.26,0,0.369,0.415,0.55,0,0.881,0.387,0.1,0.125,0.286,,,,,,,,,0.409,0.42,0,0.417,,,,
54808,20100329,-88.37,40.05,0.413,0.44,0,0.512,0.422,0.71,0,0.923,0.396,0.44,0.071,0.429,,,,,,,,,0.417,0.61,0,0.56,,,,
54808,20100330,-88.37,40.05,0.417,0.53,0,0.655,0.425,0.78,0,0.94,0.399,0.57,0.054,0.571,,,,,,,,,0.421,0.69,0,0.702,,,,
54808,20100331,-88.37,40.05,0.421,0.6,0,0.798,0.427,0.85,0,0.982,0.401,0.68,0.03,0.708,,,,,,,,,0.424,0.77,0,0.845,,,,
54808,20100401,-88.37,40.05,0.425,0.67,0,0.94,0.43,0.91,0,1,0.404,0.78,0,0.827,,,,,,,,,0.427,0.85,0,0.988,,,,
54808,20100402,-88.37,40.05,0.422,0.62,0,0.946,0.429,0.9,0,1,0.403,0.76,0,0.827,,,,,,,,,0.425,0.82,0,1,,,,